Valentine, NE

9:46 PM CDT on May 25, 2018 (GMT -0500)
Miller Field

Weather History for KVTN - December, 2011

Change the Weather History Date:

Friday, December 9, 2011

  Actual Average Record
Temperature  
Mean Temperature 16 °F 24 °F  
Max Temperature 24 °F 37 °F 69 °F (2006)
Min Temperature 8 °F 12 °F -22 °F (1919)
Degree Days  
Heating Degree Days 49 41  
Month to date heating degree days 406 355  
Since 1 July heating degree days 1861 1973  
Cooling Degree Days 0 0  
Month to date cooling degree days 0 0  
Year to date cooling degree days 912 821  
Moisture  
Dew Point 12 °F    
Average Humidity 74    
Maximum Humidity 92    
Minimum Humidity 56    
Precipitation  
Precipitation T in 0.02 in 0.13 in (1918)
Month to date precipitation 0.11 0.12  
Year to date precipitation 21.90 19.77  
Snow  
Snow T in 0.20 in 1.50 in (1972)
Month to date snowfall 1.3 1.5  
Since 1 July snowfall 3.9 9.1  
Snow Depth T in    
Sea Level Pressure  
Sea Level Pressure 30.37 in    
Wind  
Wind Speed 4 mph (NNW)    
Max Wind Speed 14 mph    
Max Gust Speed 18 mph    
Visibility 10 miles    
Events Snow    
T = Trace of Precipitation, MM = Missing Value Source: NWS Daily Summary

Daily Weather History Graph

Daily Weather History Graph

Search for Another Location

Airport or City:

Astronomy

Dec. 09, 2011 Rise Set
Actual Time 8:01 AM CST 5:07 PM CST
Civil Twilight 7:28 AM CST 5:39 PM CST
Nautical Twilight 6:53 AM CST 6:15 PM CST
Astronomical Twilight 6:19 AM CST 6:49 PM CST
Moon 4:32 PM CST (12/9) 7:10 AM CST (12/9)
Length of Visible Light 10h 10m
Length of Day
9h 06m
Waxing Gibbous, 99% of the Moon is Illuminated
Dec 9
Waxing Gibbous
Dec 10
Full
Dec 17
Last Quarter
Dec 24
New
Jan 1
First Quarter

Hourly Weather History & Observations

Time (CST) Temp. Windchill Dew Point Humidity Pressure Visibility Wind Dir Wind Speed Gust Speed Precip Events Conditions
12:36 AM 17.6 °F 12.3 °F 15.8 °F 93% 30.18 in 10.0 mi ENE 3.5 mph - N/A   Overcast
12:52 AM 19.0 °F 12.3 °F 15.1 °F 85% 30.30 in 10.0 mi ENE 4.6 mph - N/A   Overcast
1:25 AM 17.6 °F 10.7 °F 15.8 °F 93% 30.17 in 10.0 mi ENE 4.6 mph - N/A   Overcast
1:47 AM 17.6 °F 12.3 °F 15.8 °F 93% 30.16 in 10.0 mi ENE 3.5 mph - N/A   Overcast
1:52 AM 18.0 °F - 15.1 °F 88% 30.28 in 10.0 mi Calm Calm - N/A   Overcast
2:52 AM 19.9 °F 14.9 °F 15.1 °F 81% 30.31 in 10.0 mi NE 3.5 mph - N/A   Overcast
3:52 AM 19.4 °F 7.2 °F 14.0 °F 80% 30.20 in 10.0 mi NNE 11.5 mph - N/A   Overcast
4:52 AM 18.0 °F 4.2 °F 12.9 °F 81% 30.34 in 10.0 mi NNE 13.8 mph - N/A   Overcast
5:52 AM 17.1 °F 8.7 °F 12.0 °F 81% 30.37 in 7.0 mi NNE 5.8 mph - 0.00 in Snow Light Snow
6:52 AM 16.0 °F 8.8 °F 12.0 °F 84% 30.41 in 6.0 mi NNW 4.6 mph - 0.00 in Snow Light Snow
7:01 AM 15.8 °F 7.2 °F 12.2 °F 86% 30.28 in 7.0 mi North 5.8 mph - 0.00 in   Overcast
7:52 AM 12.9 °F 5.2 °F 9.0 °F 84% 30.45 in 10.0 mi North 4.6 mph - 0.00 in   Overcast
8:52 AM 10.9 °F 2.9 °F 8.1 °F 88% 30.48 in 10.0 mi WNW 4.6 mph - N/A   Clear
9:52 AM 14.0 °F 6.5 °F 8.1 °F 77% 30.49 in 10.0 mi West 4.6 mph - N/A   Clear
10:52 AM 17.1 °F 10.0 °F 10.0 °F 74% 30.50 in 10.0 mi WSW 4.6 mph - N/A   Clear
11:52 AM 19.0 °F - 7.0 °F 59% 30.48 in 10.0 mi Calm Calm - N/A   Clear
12:52 PM 19.9 °F 13.4 °F 7.0 °F 57% 30.46 in 10.0 mi West 4.6 mph - N/A   Clear
1:52 PM 21.9 °F 14.5 °F 10.9 °F 63% 30.45 in 10.0 mi West 5.8 mph - N/A   Clear
2:52 PM 23.0 °F 14.7 °F 12.0 °F 63% 30.43 in 10.0 mi SW 6.9 mph - N/A   Clear
3:52 PM 23.0 °F 15.8 °F 12.9 °F 65% 30.41 in 10.0 mi SW 5.8 mph - N/A   Clear
4:52 PM 19.0 °F 11.1 °F 12.0 °F 74% 30.42 in 10.0 mi SSW 5.8 mph - N/A   Clear
5:52 PM 12.9 °F 3.8 °F 9.0 °F 84% 30.43 in 10.0 mi SSW 5.8 mph - N/A   Clear
6:52 PM 12.9 °F - 9.0 °F 84% 30.41 in 10.0 mi Calm Calm - N/A   Clear
7:52 PM 12.0 °F - 8.1 °F 84% 30.42 in 10.0 mi Calm Calm - N/A   Clear
8:52 PM 12.0 °F 4.1 °F 9.0 °F 88% 30.43 in 10.0 mi SSW 4.6 mph - N/A   Partly Cloudy
9:52 PM 18.0 °F - 15.1 °F 88% 30.39 in 10.0 mi Calm Calm - N/A   Overcast
10:52 PM 21.0 °F - 17.1 °F 85% 30.37 in 10.0 mi Calm Calm - N/A   Overcast
11:52 PM 17.1 °F - 14.0 °F 88% 30.38 in 10.0 mi Calm Calm - N/A   Mostly Cloudy